Time,TemperatureF,DewpointF,PressureIn,WindDirection,WindDirectionDegrees,WindSpeedMPH,WindSpeedGustMPH,Humidity,HourlyPrecipIn,Conditions,Clouds,dailyrainin,SoftwareType,DateUTC
2013-06-07 13:31:00,82.4,73.0,29.77,WSW,252,6.0,12.0,72,0.00,,,0.18,weatherlink.com 1.10,2013-06-07 17:31:00,
2013-06-07 13:44:00,82.1,72.0,29.77,WSW,239,4.0,14.0,72,0.00,,,0.18,weatherlink.com 1.10,2013-06-07 17:44:00,
2013-06-07 13:59:00,82.5,73.0,29.78,West,266,11.0,12.0,72,0.00,,,0.18,weatherlink.com 1.10,2013-06-07 17:59:00,
2013-06-07 14:29:00,84.2,73.0,29.78,WNW,285,5.0,11.0,70,0.00,,,0.18,weatherlink.com 1.10,2013-06-07 18:29:00,
2013-06-07 14:44:00,85.1,73.0,29.78,SSW,201,5.0,7.0,67,0.00,,,0.18,weatherlink.com 1.10,2013-06-07 18:44:00,
2013-06-07 14:59:00,85.2,73.0,29.78,West,278,4.0,13.0,67,0.00,,,0.18,weatherlink.com 1.10,2013-06-07 18:59:00,
2013-06-07 15:14:00,85.5,73.0,29.78,WSW,248,3.0,11.0,67,0.00,,,0.18,weatherlink.com 1.10,2013-06-07 19:14:00,
2013-06-07 15:29:00,85.7,73.0,29.77,South,180,1.0,9.0,66,0.00,,,0.18,weatherlink.com 1.10,2013-06-07 19:29:00,
2013-06-07 15:44:00,86.6,73.0,29.77,NNW,330,3.0,15.0,64,0.00,,,0.18,weatherlink.com 1.10,2013-06-07 19:44:00,
2013-06-07 15:59:00,87.0,73.0,29.77,West,274,3.0,10.0,63,0.00,,,0.18,weatherlink.com 1.10,2013-06-07 19:59:00,
2013-06-07 16:14:00,87.6,72.0,29.77,WSW,245,3.0,8.0,61,0.00,,,0.18,weatherlink.com 1.10,2013-06-07 20:14:00,
2013-06-07 16:29:00,87.7,73.0,29.76,WSW,245,3.0,11.0,61,0.00,,,0.18,weatherlink.com 1.10,2013-06-07 20:29:00,
2013-06-07 16:44:00,88.4,73.0,29.76,SW,233,2.0,9.0,61,0.00,,,0.18,weatherlink.com 1.10,2013-06-07 20:44:00,
2013-06-07 16:59:00,88.5,74.0,29.77,SW,226,2.0,7.0,62,0.00,,,0.18,weatherlink.com 1.10,2013-06-07 20:59:00,
2013-06-07 17:14:00,87.9,73.0,29.77,SSW,200,1.0,8.0,61,0.00,,,0.18,weatherlink.com 1.10,2013-06-07 21:14:00,
2013-06-07 17:29:00,88.3,73.0,29.77,SW,231,1.0,11.0,61,0.00,,,0.18,weatherlink.com 1.10,2013-06-07 21:29:00,
2013-06-07 18:30:00,89.3,74.0,29.76,SW,227,1.0,4.0,61,0.00,,,0.18,weatherlink.com 1.10,2013-06-07 22:30:00,
2013-06-07 18:45:00,88.8,74.0,29.77,WSW,248,1.0,5.0,61,0.00,,,0.18,weatherlink.com 1.10,2013-06-07 22:45:00,
2013-06-07 19:00:00,88.2,73.0,29.77,WSW,253,1.0,4.0,61,0.00,,,0.18,weatherlink.com 1.10,2013-06-07 23:00:00,
2013-06-07 19:15:00,85.3,75.0,29.78,SSE,165,1.0,5.0,72,0.00,,,0.18,weatherlink.com 1.10,2013-06-07 23:15:00,
2013-06-07 19:30:00,83.0,75.0,29.78,SE,136,1.0,4.0,77,0.00,,,0.18,weatherlink.com 1.10,2013-06-07 23:30:00,
2013-06-07 19:45:00,82.6,76.0,29.79,SSW,210,0.0,3.0,79,0.00,,,0.18,weatherlink.com 1.10,2013-06-07 23:45:00,
2013-06-07 20:00:00,81.6,76.0,29.79,SW,224,1.0,2.0,82,0.00,,,0.18,weatherlink.com 1.10,2013-06-08 00:00:00,
2013-06-07 20:15:00,80.8,75.0,29.80,SW,214,1.0,3.0,83,0.00,,,0.18,weatherlink.com 1.10,2013-06-08 00:15:00,
2013-06-07 20:30:00,80.2,75.0,29.80,SW,227,1.0,3.0,85,0.00,,,0.18,weatherlink.com 1.10,2013-06-08 00:30:00,
2013-06-07 20:45:00,79.8,75.0,29.81,SW,225,2.0,2.0,86,0.00,,,0.18,weatherlink.com 1.10,2013-06-08 00:45:00,
2013-06-07 21:00:00,79.6,75.0,29.82,SW,219,0.0,2.0,86,0.00,,,0.18,weatherlink.com 1.10,2013-06-08 01:00:00,
2013-06-07 21:30:00,79.6,75.0,29.83,WSW,243,1.0,3.0,85,0.00,,,0.18,weatherlink.com 1.10,2013-06-08 01:30:00,
2013-06-07 22:00:00,79.6,75.0,29.85,SW,217,0.0,2.0,86,0.00,,,0.18,weatherlink.com 1.10,2013-06-08 02:00:00,
2013-06-07 22:15:00,79.8,75.0,29.86,WSW,247,0.0,4.0,85,0.00,,,0.18,weatherlink.com 1.10,2013-06-08 02:15:00,